Terug naar catalogus

ATLAS 5 CENTAUR DEB

ActiefHEO
NORAD 43986·DEBRIS·🇺🇸 United States

Gelanceerd Sep 17, 2014 vanaf Cape Canaveral Space Force Station

Loading…

Volgende Passages (komende 24 uur)

TLE

VersSource: Space-Track

Epoch: Sep 14, 2026, 00:46 UTC

1 43986U 14055AR  26257.03206776 -.00000097  00000-0  00000-0 0  9995
2 43986  20.1215 141.4232 4748111 170.0870 204.2628  1.84561016 53755

Volg ATLAS 5 CENTAUR DEB in realtime met AllMySat

Download on the App Store